"TOA5","AWS1","CR1000","7964","CR1000.Std.14","CPU:AWS1_114.CR1","64363","TBL110"
"TIMESTAMP","RECORD","Wind_spd_WVc(1)","Wind_spd_WVc(2)","Air_Temp_Avg","Humidity_Avg","SW_upper_Wm2_Avg","Rain_Tot","Press_Avg","Issui_Tot","Depth_cm","SR50A_Raw","Quality","Ground_Temp_Avg(1)","Ground_Temp_Avg(2)","SW_lower_Wm2_Avg","Albedo_Avg","SWC_per(1)","SWC_per(2)","Period(1)","Period(2)"
"TS","RN","","","","","","","","","","","","","","","","","","",""
"","","WVc","WVc","Avg","Avg","Avg","Tot","Avg","Tot","Smp","Smp","Smp","Avg","Avg","Avg","Avg","Smp","Smp","Smp","Smp"
"2018-07-15 00:00:00",349405,0.177,101.6,19.95,100,0,0,868.923,0,21.99,2.858,320,21.68,20.32,0.1705295,0,48.32,55.43,32.88,34.61
"2018-07-15 00:10:00",349406,0.256,102.4,19.83,100,0,0,868.9083,0,24.25,2.836,312,21.71,20.32,0.1932668,0,48.32,55.43,32.88,34.61
"2018-07-15 00:20:00",349407,0.009,122.3,19.92,100,0,0,868.8894,0,23.13,2.847,291,21.71,20.32,0.2273727,0,48.32,55.37,32.88,34.6
"2018-07-15 00:30:00",349408,0.156,89.9,19.91,100,0,0,868.8283,0,23.21,2.846,285,21.66,20.32,0.2349517,0,48.27,55.43,32.86,34.61
"2018-07-15 00:40:00",349409,0.196,93.7,19.98,100,0,0,868.8304,0,22.19,2.855,297,21.59,20.32,0.5608526,0,48.27,55.43,32.86,34.61
"2018-07-15 00:50:00",349410,0.113,121.8,19.91,100,0,0,868.8768,0,23.01,2.849,288,21.62,20.32,0.2690577,0,48.27,55.37,32.86,34.6
"2018-07-15 01:00:00",349411,0.098,128.6,19.65,100,0,0,868.7735,0,17.94,2.898,288,21.63,20.32,0.04547453,0,48.27,55.37,32.86,34.6
"2018-07-15 01:10:00",349412,0.205,133.5,19.79,100,0,0,868.6703,0,26.13,2.818,387,21.61,20.32,0.2766367,0,48.27,55.37,32.86,34.6
"2018-07-15 01:20:00",349413,0.091,155.3,19.98,100,0,0,868.6724,0,-15.34,3.217,185,21.59,20.32,0.2501124,0,48.27,55.37,32.86,34.6
"2018-07-15 01:30:00",349414,0.005,107.9,20.19,100,0,0,868.7925,0,18.97,2.885,281,21.56,20.32,0.6328604,0,48.32,55.37,32.88,34.6
"2018-07-15 01:40:00",349415,0,105.3,20.28,99.8,0.05109402,0,868.9125,0,19.53,2.88,285,21.54,20.32,0.4433789,0.627,48.32,55.37,32.88,34.6
"2018-07-15 01:50:00",349416,0,0,20.2,99.4,0,0,868.921,0,18.03,2.895,297,21.51,20.32,0.1364238,0,48.27,55.37,32.86,34.6
"2018-07-15 02:00:00",349417,0,0,19.99,100,0,0,868.7693,0,18.24,2.894,290,21.45,20.32,0.003789545,0,48.32,55.37,32.88,34.6
"2018-07-15 02:10:00",349418,0.053,297.2,19.81,100,0,0,868.6703,0,22.92,2.849,355,21.45,20.32,0.09852815,0,48.27,55.37,32.86,34.6
"2018-07-15 02:20:00",349419,0.006,58.15,19.77,100,0,0,868.6703,0,20.75,2.871,316,21.45,20.32,0.1705295,0,48.27,55.37,32.86,34.6
"2018-07-15 02:30:00",349420,0.008,33.63,19.66,100,0,0,868.6682,0,23.01,2.849,333,21.45,20.32,0.1364236,0,48.27,55.32,32.86,34.59
"2018-07-15 02:40:00",349421,0,0,19.66,100,0,0,868.6703,0,-25.68,3.321,223,21.38,20.32,0.2311622,0,48.27,55.32,32.86,34.59
"2018-07-15 02:50:00",349422,0.227,218.9,19.12,100,0,0,868.6766,0,22.74,2.855,344,21.34,20.32,0,0,48.32,55.32,32.88,34.59
"2018-07-15 03:00:00",349423,0.083,122.3,19.12,100,0,0,868.7125,0,23.26,2.85,357,21.36,20.32,0.1894772,0,48.27,55.32,32.86,34.59
"2018-07-15 03:10:00",349424,0.106,207,18.82,100,0,0,868.7777,0,24.3,2.841,298,21.35,20.33,0,0,48.27,55.32,32.86,34.59
"2018-07-15 03:20:00",349425,0.09,200.9,18.65,100,0,0,868.725,0,14.16,2.941,443,21.26,20.35,0.08715952,0,48.27,55.32,32.86,34.59
"2018-07-15 03:30:00",349426,0.352,190.3,18.4,100,0,0,868.6724,0,14.7,2.936,352,21.28,20.36,0,0,48.27,55.32,32.86,34.59
"2018-07-15 03:40:00",349427,0.248,191.7,18.42,100,0,0,868.6914,0,20.05,2.884,514,21.29,20.36,0.1781086,0,48.27,55.32,32.86,34.59
"2018-07-15 03:50:00",349428,0.319,190.7,18.3,100,0,0,868.8746,0,17.79,2.907,400,21.3,20.37,0.1818981,0,48.27,55.32,32.86,34.59
"2018-07-15 04:00:00",349429,0.332,190.7,18.17,100,0,0,868.923,0,21.38,2.872,375,21.19,20.38,0.2273733,0,48.27,55.32,32.86,34.59
"2018-07-15 04:10:00",349430,0.179,191.9,18.27,100,0,0,868.923,0,22.99,2.856,284,21.2,20.4,0.2273756,0,48.27,55.26,32.86,34.57
"2018-07-15 04:20:00",349431,0.057,189.8,18.26,100,0,0,868.923,0,22.45,2.862,365,21.21,20.4,0.2273751,0,48.27,55.26,32.86,34.57
"2018-07-15 04:30:00",349432,0.207,189.9,18.11,100,0,0,868.923,0,22.04,2.866,292,21.26,20.4,0.2273761,0,48.27,55.26,32.86,34.57
"2018-07-15 04:40:00",349433,0.078,190,18.24,100,0,0,869.1042,0,-26.05,3.331,193,21.13,20.36,0.6328584,0,48.27,55.26,32.86,34.57
"2018-07-15 04:50:00",349434,0.331,185.5,18.01,100,0.7742679,0,869.159,0,20.72,2.879,261,21.11,20.36,0.4509568,0.426,48.27,55.26,32.86,34.57
"2018-07-15 05:00:00",349435,0.16,185.7,18.03,100,4.229013,0,869.1758,0,20.56,2.881,320,21.14,20.35,1.023183,0.25,48.27,55.26,32.86,34.57
"2018-07-15 05:10:00",349436,0.379,198.9,18.14,100,10.98933,0,869.1737,0,-29.36,3.364,218,21.06,20.34,2.03882,0.188,48.27,55.26,32.86,34.57
"2018-07-15 05:20:00",349437,0.235,190.4,18.14,100,17.34465,0,869.1926,0,-24.66,3.318,203,21,20.33,2.724729,0.158,48.27,55.26,32.86,34.57
"2018-07-15 05:30:00",349438,0.086,190.5,18.31,100,24.76512,0,869.4138,0,-23.68,3.307,208,21.02,20.32,3.7176,0.15,48.27,55.26,32.86,34.57
"2018-07-15 05:40:00",349439,0.19,190.3,18.33,100,36.35171,0,869.4286,0,21.05,2.875,320,21.05,20.32,5.206904,0.144,48.27,55.26,32.86,34.57
"2018-07-15 05:50:00",349440,0.331,190.2,18.42,100,56.34489,0,869.4286,0,7.711,3.003,263,20.97,20.32,8.621259,0.152,48.27,55.26,32.86,34.57
"2018-07-15 06:00:00",349441,0.118,190.2,18.7,100,96.09961,0,869.4286,0,8.97,2.989,281,20.93,20.32,14.81714,0.155,48.27,55.26,32.86,34.57
"2018-07-15 06:10:00",349442,0,0,19.29,100,107.6034,0,869.4327,0,9.43,2.981,298,20.93,20.32,17.85255,0.166,48.27,55.26,32.86,34.57
"2018-07-15 06:20:00",349443,0,0,19.71,100,88.78518,0,869.4286,0,21.37,2.864,348,20.93,20.32,18.34518,0.208,48.32,55.2,32.88,34.56
"2018-07-15 06:30:00",349444,0.013,69.95,20.12,96.4,81.05431,0,869.4286,0,-19.69,3.259,201,20.94,20.3,20.72881,0.26,48.27,55.2,32.86,34.56
"2018-07-15 06:40:00",349445,0.035,36.95,20.37,92,90.0979,0,869.4286,0,21.33,2.861,252,20.89,20.26,24.85562,0.286,48.27,55.2,32.86,34.56
"2018-07-15 06:50:00",349446,0.115,332.7,20.73,88.4,134.4866,0,869.4307,0,23.25,2.841,291,20.89,20.25,26.30323,0.204,48.32,55.2,32.88,34.56
"2018-07-15 07:00:00",349447,0.277,18.19,20.92,86.6,96.35098,0,869.5318,0,21.82,2.855,268,20.85,20.24,27.29609,0.286,48.32,55.2,32.88,34.56
"2018-07-15 07:10:00",349448,0.535,8.99,20.9,84,98.65414,0,869.6624,0,22.67,2.846,262,20.84,20.22,28.24347,0.321,48.32,55.2,32.88,34.56
"2018-07-15 07:20:00",349449,0.663,2.084,21.19,80.7,81.25475,0,869.6813,0,25.48,2.817,254,20.84,20.23,28.10705,0.35,48.27,55.2,32.86,34.56
"2018-07-15 07:30:00",349450,0.447,10.32,21.49,78.86,82.481,0,869.6813,0,24.79,2.823,294,20.84,20.23,28.78159,0.35,48.27,55.2,32.86,34.56
"2018-07-15 07:40:00",349451,0.658,18.03,21.58,79.34,85.71562,0,869.6813,0,23.92,2.831,275,20.84,20.23,31.15763,0.364,48.32,55.2,32.88,34.56
"2018-07-15 07:50:00",349452,0.662,9.54,21.77,79.1,132.3092,0,869.6813,0,22.54,2.843,290,20.77,20.23,35.90593,0.321,48.27,55.2,32.86,34.56
"2018-07-15 08:00:00",349453,0.7,21.05,22.29,78.18,570.5637,0,869.6791,0,24.36,2.823,410,20.75,20.23,49.32092,0.087,48.27,55.2,32.86,34.56
"2018-07-15 08:10:00",349454,0.781,6.975,22.65,75.74,628.3939,0,869.6244,0,22.79,2.836,314,20.72,20.22,74.3698,0.118,48.27,55.15,32.86,34.55
"2018-07-15 08:20:00",349455,0.6,25.3,22.91,76.01,665.2836,0,869.496,0,21.5,2.848,277,20.78,20.18,90.82022,0.136,48.27,55.15,32.86,34.55
"2018-07-15 08:30:00",349456,0.427,10.35,23.27,75.53,700.3417,0,869.4854,0,22.52,2.835,388,20.77,20.15,101.3779,0.145,48.27,55.2,32.86,34.56
"2018-07-15 08:40:00",349457,0.365,28.25,23.66,73.43,724.9611,0,869.498,0,8.22,2.972,256,20.75,20.15,107.066,0.148,48.27,55.15,32.86,34.55
"2018-07-15 08:50:00",349458,0.662,12.11,23.78,72.84,756.1047,0,869.4327,0,19.77,2.86,258,20.72,20.19,111.6551,0.148,48.27,55.15,32.86,34.55
"2018-07-15 09:00:00",349459,0.422,25.44,23.99,72.77,766.6025,0,869.4286,0,21.49,2.841,288,20.71,20.19,111.9621,0.146,48.27,55.15,32.86,34.55
"2018-07-15 09:10:00",349460,0.275,18.55,24.61,69.51,834.7772,0,869.4286,0,-21.25,3.25,196,20.72,20.16,120.8107,0.145,48.27,55.15,32.86,34.55
"2018-07-15 09:20:00",349461,0.444,346.5,24.42,67.61,765.3055,0,869.4286,0,-20.79,3.247,192,20.72,20.11,108.6197,0.139,48.27,55.15,32.86,34.55
"2018-07-15 09:30:00",349462,0.649,18.69,24.35,66.79,875.267,0,869.4286,0,-16.77,3.208,202,20.71,20.11,129.5418,0.147,48.27,55.15,32.86,34.55
"2018-07-15 09:40:00",349463,0.7,14.31,24.49,66.37,932.9047,0,869.4286,0,-20.2,3.238,194,20.71,20.1,139.6106,0.15,48.32,55.15,32.88,34.55
"2018-07-15 09:50:00",349464,0.649,21.86,24.95,64.35,943.713,0,869.4286,0,21.81,2.835,267,20.72,20.1,140.342,0.149,48.27,55.15,32.86,34.55
"2018-07-15 10:00:00",349465,0.359,30.77,25.45,64.53,955.3427,0,869.2432,0,20.75,2.841,270,20.7,20.11,141.5888,0.148,48.27,55.15,32.86,34.55
"2018-07-15 10:10:00",349466,0.468,351.8,25.73,64.85,965.6676,0,869.2643,0,-19.91,3.231,186,20.64,20.1,144.1467,0.149,48.21,55.09,32.85,34.53
"2018-07-15 10:20:00",349467,0.76,12.11,25.81,62.81,1044.077,0,869.3674,0,23.3,2.817,308,20.64,20.09,159.2973,0.152,48.16,55.15,32.84,34.55
"2018-07-15 10:30:00",349468,0.501,318.8,25.88,62.88,1003.937,0,869.416,0,-15.25,3.186,183,20.63,20.09,151.0626,0.15,48.16,55.15,32.84,34.55
"2018-07-15 10:40:00",349469,0.636,18.4,25.95,63.99,977.7767,0,869.2264,0,-18.51,3.216,208,20.68,19.98,147.6823,0.149,48.16,55.15,32.84,34.55
"2018-07-15 10:50:00",349470,0.459,11.52,26.34,60.77,1020.68,0,869.1758,0,19.35,2.851,299,20.75,19.94,157.1789,0.154,48.11,55.09,32.82,34.53
"2018-07-15 11:00:00",349471,0.392,247.1,26.73,59.14,1047.225,0,869.1716,0,318,0,0,20.72,19.93,161.806,0.155,48.16,55.03,32.84,34.52
"2018-07-15 11:10:00",349472,0.329,357.8,26.83,57.52,934.3825,0,869.1674,0,-19.04,3.218,194,20.8,19.93,141.4068,0.146,48.11,55.09,32.82,34.53
"2018-07-15 11:20:00",349473,0.436,334.3,26.66,56.33,1051.206,0,869.1379,0,-14.64,3.173,190,20.82,19.94,159.2291,0.151,48.05,55.03,32.81,34.52
"2018-07-15 11:30:00",349474,0.615,302.5,26.87,55.62,1057.628,0,868.961,0,9.91,2.941,294,20.89,19.94,161.2565,0.152,48.05,55.09,32.81,34.53
"2018-07-15 11:40:00",349475,0.371,321.1,27.13,52.36,1051.56,0,868.923,0,13.03,2.908,357,20.97,19.96,161.5862,0.154,48.05,55.03,32.81,34.52
"2018-07-15 11:50:00",349476,0.564,338.1,27.23,49.47,1060.069,0,868.923,0,10.49,2.932,260,21.03,19.97,163.4165,0.154,48,55.03,32.8,34.52
"2018-07-15 12:00:00",349477,0.54,19.75,27.58,49.34,1064.892,0,868.9252,0,20.66,2.832,354,21.09,20.01,166.3155,0.156,48,55.03,32.8,34.52
"2018-07-15 12:10:00",349478,0.542,338,27.65,45.67,1068.15,0,868.862,0,18.12,2.858,302,21.18,19.99,168.8469,0.158,47.95,54.97,32.78,34.51
"2018-07-15 12:20:00",349479,0.489,357.1,27.58,46.69,1066.574,0,868.7272,0,19.31,2.845,245,21.25,19.97,167.4524,0.157,47.95,54.97,32.78,34.51
"2018-07-15 12:30:00",349480,0.555,350.2,27.92,43.63,1055.137,0,868.6746,0,-6.468,3.091,188,21.36,19.96,166.649,0.158,47.89,54.92,32.77,34.49
"2018-07-15 12:40:00",349481,0.405,6.628,28.02,45,1054.909,0,868.624,0,21.66,2.82,307,21.42,19.94,164.8528,0.156,47.84,54.97,32.76,34.51
"2018-07-15 12:50:00",349482,0.42,336.3,28.07,41.46,1034.683,0,868.4512,0,15.7,2.879,290,21.48,19.93,161.4536,0.156,47.84,54.97,32.76,34.51
"2018-07-15 13:00:00",349483,0.287,67.75,28.3,45.91,1013.468,0,868.3839,0,-8.41,3.107,191,21.58,19.93,157.5617,0.155,47.84,54.97,32.76,34.51
"2018-07-15 13:10:00",349484,0.495,291,28.2,44.99,1006.244,0,868.1649,0,22.27,2.816,270,21.68,19.93,157.4063,0.156,47.79,54.92,32.74,34.49
"2018-07-15 13:20:00",349485,0.252,270,28.21,46.75,992.4603,0,868.1649,0,21.83,2.82,263,21.74,19.93,155.6517,0.157,47.79,54.92,32.74,34.49
"2018-07-15 13:30:00",349486,0.437,286.9,28.37,45.87,974.267,0,868.2048,0,18.84,2.846,386,21.85,19.92,153.3667,0.157,47.73,54.92,32.73,34.49
"2018-07-15 13:40:00",349487,0.33,263,28.53,46.85,948.8577,0,868.1711,0,-23.85,3.254,196,21.91,19.91,150.1342,0.158,47.68,54.86,32.71,34.48
"2018-07-15 13:50:00",349488,0.373,271.4,28.13,46.75,930.6722,0,868.1711,0,12.46,2.909,259,21.99,19.9,147.8453,0.159,47.68,54.86,32.71,34.48
"2018-07-15 14:00:00",349489,0.4,289.5,28.31,44.65,906.9098,0,868.1649,0,-20.8,3.224,179,22.07,19.91,143.2675,0.158,47.68,54.86,32.71,34.48
"2018-07-15 14:10:00",349490,0.268,267.9,28.29,44.96,888.1976,0,868.1649,0,-50.3,3.506,448,22.13,19.93,138.1175,0.156,47.62,54.8,32.7,34.46
"2018-07-15 14:20:00",349491,0.439,249.2,28.27,46.08,870.1931,0,868.1649,0,-20.41,3.221,220,22.22,19.98,132.1452,0.152,47.57,54.8,32.69,34.46
"2018-07-15 14:30:00",349492,0.52,358.9,28.42,48.06,841.8557,0,868.1649,0,-9.29,3.115,193,22.31,20.02,124.3274,0.148,47.57,54.8,32.69,34.46
"2018-07-15 14:40:00",349493,0.473,261.2,28.32,48.28,827.4354,0,868.1649,0,-10.12,3.124,185,22.39,20.02,115.5394,0.14,47.57,54.75,32.69,34.45
"2018-07-15 14:50:00",349494,0.501,273.2,28,47.53,795.0027,0,868.1649,0,-27.33,3.29,228,22.43,20.02,99.21786,0.125,47.46,54.75,32.66,34.45
"2018-07-15 15:00:00",349495,0.588,264,27.84,47.83,778.1497,0,868.1606,0,9.66,2.935,340,22.49,20.02,81.19099,0.104,47.46,54.75,32.66,34.45
"2018-07-15 15:10:00",349496,0.44,230.8,28.23,48.35,744.3177,0,868.0701,0,23.45,2.804,262,22.58,20.02,54.22838,0.073,47.46,54.75,32.66,34.45
"2018-07-15 15:20:00",349497,0.354,250.8,28.13,47.11,520.0948,0,867.9121,0,-17.56,3.196,198,22.65,20.02,37.3687,0.077,47.41,54.69,32.65,34.44
"2018-07-15 15:30:00",349498,0.341,76.95,28.1,48.65,243.6896,0,867.9121,0,-9.8,3.123,194,22.71,20.05,28.03126,0.133,47.41,54.75,32.65,34.45
"2018-07-15 15:40:00",349499,0.71,35.42,27.77,51.24,87.31132,0,867.9121,0,-18.94,3.21,192,22.76,20.03,18.04202,0.216,47.41,54.75,32.65,34.45
"2018-07-15 15:50:00",349500,0.434,192.3,27.43,50.6,63.69423,0,867.8383,0,8.85,2.947,213,22.81,20.02,14.37374,0.227,47.36,54.69,32.63,34.44
"2018-07-15 16:00:00",349501,0.421,157.2,26.96,53.01,68.81147,0,867.9121,0,-18.88,3.216,254,22.84,20.07,12.83519,0.188,47.36,54.69,32.63,34.44
"2018-07-15 16:10:00",349502,0.495,164.9,26.93,53.7,68.45774,0,867.9121,0,-11.46,3.144,175,22.94,20.11,11.85369,0.174,47.3,54.69,32.62,34.44
"2018-07-15 16:20:00",349503,0.116,188.5,26.73,57.15,82.76005,0,867.9163,0,24.32,2.803,253,22.95,20.13,14.21837,0.172,47.25,54.63,32.61,34.42
"2018-07-15 16:30:00",349504,0.254,208.6,26.78,58.89,87.39004,0,867.931,0,-9.03,3.122,169,23.04,20.12,12.27055,0.147,47.2,54.69,32.59,34.44
"2018-07-15 16:40:00",349505,0.256,210.6,26.51,60.53,77.80886,0,867.9121,0,-9.56,3.127,170,23.03,20.12,10.32285,0.133,47.2,54.63,32.59,34.42
"2018-07-15 16:50:00",349506,0.162,189.4,26.33,62.8,87.78366,0,867.9121,0,23.97,2.809,279,23.13,20.13,11.74389,0.133,47.2,54.63,32.59,34.42
"2018-07-15 17:00:00",349507,0.142,268.2,25.85,65.97,90.76241,0,867.9121,0,22.61,2.824,260,23.16,20.18,12.39185,0.136,47.2,54.63,32.59,34.42
"2018-07-15 17:10:00",349508,0.265,186.6,25.53,67.35,56.65125,0,868.0574,0,23.25,2.82,248,23.16,20.21,5.976121,0.104,47.25,54.63,32.61,34.42
"2018-07-15 17:20:00",349509,0.051,164.4,25.1,69.19,48.26893,0,868.2154,0,24,2.814,274,23.18,20.25,4.748405,0.098,47.2,54.63,32.59,34.42
"2018-07-15 17:30:00",349510,0.074,178.3,24.88,69.66,45.10582,0,868.386,0,23.4,2.821,268,23.19,20.32,4.270991,0.095,47.14,54.58,32.58,34.41
"2018-07-15 17:40:00",349511,0.083,189.3,24.63,69.97,40.17258,0,868.4176,0,22.8,2.828,245,23.2,20.32,3.615326,0.09,47.14,54.58,32.58,34.41
"2018-07-15 17:50:00",349512,0.038,193.5,24.44,69.78,35.81317,0,868.4344,0,23.07,2.826,260,23.22,20.29,3.175673,0.089,47.04,54.58,32.55,34.41
"2018-07-15 18:00:00",349513,0.056,135.9,24.21,71.09,32.42891,0,868.624,0,23.31,2.825,240,23.24,20.32,2.808062,0.087,47.14,54.58,32.58,34.41
"2018-07-15 18:10:00",349514,0.041,146.5,23.89,71.14,28.40456,0,868.6703,0,23.08,2.829,241,23.24,20.38,2.368496,0.083,47.09,54.58,32.57,34.41
"2018-07-15 18:20:00",349515,0,0,23.78,69.37,23.94397,0,868.7903,0,22.93,2.83,246,23.25,20.45,2.114625,0.089,47.09,54.52,32.57,34.4
"2018-07-15 18:30:00",349516,0,0,23.65,70.28,19.14904,0,868.923,0,22.81,2.832,241,23.25,20.46,1.633352,0.085,47.09,54.52,32.57,34.4
"2018-07-15 18:40:00",349517,0,0,23.46,72.13,14.53899,0,869.0347,0,22.88,2.833,238,23.26,20.5,1.212726,0.084,47.09,54.52,32.57,34.4
"2018-07-15 18:50:00",349518,0.066,195.8,23.12,74.5,9.252555,0,869.1695,0,22.74,2.836,242,23.28,20.51,0.731434,0.078,47.04,54.52,32.55,34.4
"2018-07-15 19:00:00",349519,0.042,191.6,22.72,77.18,5.475197,0,869.1758,0,22.77,2.837,253,23.24,20.52,0.4509816,0.079,47.04,54.52,32.55,34.4
"2018-07-15 19:10:00",349520,0,0,22.51,77.91,0.7507148,0,869.1758,0,22.69,2.839,252,23.18,20.57,0.04168663,0.02,47.04,54.52,32.55,34.4
"2018-07-15 19:20:00",349521,0.15,190.2,22.14,81.4,0,0,869.1758,0,22.53,2.843,243,23.16,20.57,0,0,47.04,54.46,32.55,34.38
"2018-07-15 19:30:00",349522,0.022,194.2,21.88,82.8,0,0,869.1758,0,22.87,2.84,250,23.15,20.55,0,0,47.04,54.46,32.55,34.38
"2018-07-15 19:40:00",349523,0.089,190.5,21.78,83.1,0,0,869.1779,0,22.45,2.844,263,23.15,20.55,0.05684679,0,47.04,54.46,32.55,34.38
"2018-07-15 19:50:00",349524,0,0,22.01,82.4,0,0,869.319,0,22.16,2.847,252,23.11,20.55,0.5192086,0,46.98,54.46,32.54,34.38
"2018-07-15 20:00:00",349525,0.262,190,21.48,86.3,0,0,869.4286,0,22.18,2.848,246,23.07,20.67,0.09853795,0,47.04,54.46,32.55,34.38
"2018-07-15 20:10:00",349526,0.018,194.9,21.71,86,0,0,869.4307,0,21.83,2.851,249,23.1,20.68,0.5874425,0,47.04,54.46,32.55,34.38
"2018-07-15 20:20:00",349527,0,0,21.57,87.5,0,0,869.614,0,22.12,2.849,259,23.07,20.65,0.2273935,0,46.98,54.41,32.54,34.37
"2018-07-15 20:30:00",349528,0.149,194.5,21.45,89.2,0,0,869.6855,0,22.18,2.849,245,22.97,20.68,0.227395,0,46.98,54.41,32.54,34.37
"2018-07-15 20:40:00",349529,0.233,194.1,21.33,90.8,0,0,869.8119,0,21.94,2.851,251,23.01,20.73,0.2273966,0,46.98,54.46,32.54,34.38
"2018-07-15 20:50:00",349530,0.265,198.2,21.51,90.1,0.09040378,0,869.934,0,22.28,2.846,261,23,20.76,0.4434138,0.964,46.98,54.41,32.54,34.37
"2018-07-15 21:00:00",349531,0.003,200,21.86,88.1,0.3812663,0,869.9277,0,21.86,2.849,259,22.96,20.78,0.6821687,1.438,46.93,54.41,32.52,34.37
"2018-07-15 21:10:00",349532,0.048,197.4,21.78,89.1,0,0,869.8098,0,22.14,2.848,260,22.94,20.78,0.314555,0,46.93,54.41,32.52,34.37
"2018-07-15 21:20:00",349533,0.045,194.4,21.49,92.2,0,0,869.7045,0,21.84,2.852,246,22.9,20.77,0,0,46.98,54.41,32.54,34.37
"2018-07-15 21:30:00",349534,0.062,194.5,21.29,95.5,0,0,869.6834,0,21.91,2.852,274,22.82,20.77,0.03789649,0,46.98,54.35,32.54,34.36
"2018-07-15 21:40:00",349535,0,0,21.29,98,0.07861002,0,869.7466,0,21.69,2.853,318,22.82,20.76,0.4017104,0.892,46.98,54.35,32.54,34.36
"2018-07-15 21:50:00",349536,0,0,21.73,93.1,0.9511878,0,869.8056,0,21.62,2.852,272,22.85,20.75,1.057348,1.144,46.93,54.35,32.52,34.36
"2018-07-15 22:00:00",349537,0,0,21.86,91.6,0.6603118,0,869.8709,0,21.81,2.85,251,22.78,20.83,0.7351977,1.203,46.93,54.41,32.52,34.37
"2018-07-15 22:10:00",349538,0,0,21.81,92.8,0.2358203,0,869.9277,0,22.02,2.848,244,22.75,20.85,0.6783372,2.877,46.93,54.35,32.52,34.36
"2018-07-15 22:20:00",349539,0,0,21.81,93.4,0.1257698,0,869.934,0,22,2.849,248,22.72,20.85,0.2880076,0.771,46.93,54.41,32.52,34.37
"2018-07-15 22:30:00",349540,0,0,21.6,95.4,0,0,869.9424,0,22.34,2.847,253,22.66,20.85,0.05684391,0,46.93,54.41,32.52,34.37
"2018-07-15 22:40:00",349541,0,0,21.52,95.9,0,0,870.0246,0,21.88,2.851,258,22.61,20.85,0.2273764,0,46.93,54.35,32.52,34.36
"2018-07-15 22:50:00",349542,0.03,8.85,21.42,95.7,0,0,870.0267,0,21.49,2.856,254,22.64,20.85,0.1326363,0,46.93,54.35,32.52,34.36
"2018-07-15 23:00:00",349543,0.012,32.09,21.08,99.6,0,0,869.9719,0,22.83,2.845,251,22.65,20.85,0,0,46.93,54.35,32.52,34.36
"2018-07-15 23:10:00",349544,0,0,20.9,100,0,0,869.9993,0,22.35,2.849,242,22.57,20.85,0.1288491,0,46.93,54.29,32.52,34.34
"2018-07-15 23:20:00",349545,0,0,21.01,100,0,0,869.9867,0,22.06,2.852,267,22.56,20.87,0.4206577,0,46.93,54.35,32.52,34.36
"2018-07-15 23:30:00",349546,0,0,20.95,100,0,0,869.934,0,22.22,2.851,268,22.57,20.9,0.2273887,0,46.88,54.35,32.51,34.36
"2018-07-15 23:40:00",349547,0.004,45.19,20.68,100,0,0,869.934,0,22.27,2.851,277,22.57,20.92,0.1061132,0,46.88,54.35,32.51,34.36
"2018-07-15 23:50:00",349548,0,0,20.64,100,0,0,869.934,0,22.48,2.85,274,22.49,20.94,0.2273845,0,46.88,54.35,32.51,34.36
